This is the latest recevied weather packets stored in our database for station/object KK6LVQ-13. If no packets are shown the sender has not sent any weather packets the latest 10 day(s).
| Time | Temp. | Humidity | Pressure | Rain* | Wind** | Luminosity | Snow |
|---|---|---|---|---|---|---|---|
| 1777912006 | 15° C | 76% | 1020.4 hPa | 0 mm | - | 450 W/m² | - |
| 1777911702 | 15° C | 78% | 1020.4 hPa | 0 mm | - | 431 W/m² | - |
| 1777911398 | 13.89° C | 80% | 1020.3 hPa | 0 mm | - | 415 W/m² | - |
| 1777911097 | 13.33° C | 81% | 1020.4 hPa | 0 mm | - | 398 W/m² | - |
| 1777910794 | 12.78° C | 84% | 1020.4 hPa | 0 mm | - | 380 W/m² | - |
| 1777910490 | 12.22° C | 87% | 1020.5 hPa | 0 mm | - | 362 W/m² | - |
| 1777910187 | 11.67° C | 89% | 1020.6 hPa | 0 mm | - | 345 W/m² | - |
| 1777909884 | 10.56° C | 97% | 1020.7 hPa | 0 mm | - | 327 W/m² | - |
| 1777909581 | 10° C | 99% | 1020.4 hPa | 0 mm | - | 281 W/m² | - |
| 1777909278 | 9.44° C | 99% | 1020.7 hPa | 0 mm | - | 249 W/m² | - |
| 1777908976 | 8.89° C | 99% | 1020.7 hPa | 0 mm | - | 218 W/m² | - |
| 1777908674 | 8.89° C | 99% | 1020.7 hPa | 0 mm | - | 192 W/m² | - |
| 1777908371 | 10° C | 99% | 1020.7 hPa | 0 mm | - | 170 W/m² | - |
| 1777908067 | 9.44° C | 99% | 1020.8 hPa | 0 mm | - | 150 W/m² | - |
| 1777907763 | 8.33° C | 99% | 1020.8 hPa | 0 mm | - | 134 W/m² | - |
| 1777907457 | 7.78° C | 99% | 1020.7 hPa | 0 mm | - | 122 W/m² | - |
| 1777907155 | 7.22° C | 99% | 1020.9 hPa | 0 mm | - | 62 W/m² | - |
| 1777906852 | 7.22° C | 99% | 1020.8 hPa | 0 mm | - | 70 W/m² | - |
| 1777906549 | 6.67° C | 99% | 1020.7 hPa | 0 mm | - | 74 W/m² | - |
| 1777906244 | 6.67° C | 99% | 1020.7 hPa | 0 mm | - | 89 W/m² | - |
| 1777905941 | 6.67° C | 99% | 1020.7 hPa | 0 mm | - | 85 W/m² | - |
| 1777905638 | 6.67° C | 99% | 1020.8 hPa | 0 mm | - | 90 W/m² | - |
| 1777905335 | 6.67° C | 99% | 1020.6 hPa | 0 mm | - | 77 W/m² | - |
| 1777905033 | 6.67° C | 99% | 1020.7 hPa | 0 mm | - | 72 W/m² | - |
| 1777904730 | 6.67° C | 99% | 1020.7 hPa | 0 mm | - | 62 W/m² | - |
* Rain latest hour (hover to see other rain measurements)
** Current wind speed in m/s (hover to see current wind gust speed)